Flag for Canada Weather past 2 weeks in Saguenay, Quebec, Canada

Now
-6 °F

Frigid.


Feels Like: -15 °F
Forecast: -16 / -4 °F
Wind: 3 mph from Southwest

Location: Jonquiere Airport

Current Time: Jan 26, 2015 at 12:16:41 PM

Latest Report: Jan 26, 2015 at 11:00 AM


Visibility: N/A

Pressure: 30.32 "Hg

Humidity: 59%

Dew point: -17 °F

Location of SaguenayLocation

Historic Weather in Saguenay — Graph

°F

Saguenay temperature yesterday

Maximum temperature yesterday: 19 °F (at 12:00 AM)
Minimum temperature yesterday: -3 °F (at 11:00 PM)
Average temperature yesterday: 3 °F

Past Weeks' High & Low Weather Summary

 TemperatureHumidityPressure
High33 °F (Jan 19, 6:00 AM)100% (Jan 19, 7:00 AM)30.77 "Hg (Jan 19, 7:00 AM)
Low-21 °F (Jan 14, 6:00 AM)49% (Jan 17, 3:00 PM)29.20 "Hg (Jan 24, 11:00 PM)
Average4 °F78%30.00 "Hg
* Reported Jan 11 11:00 AM — Jan 26 11:00 AM, Saguenay, Weather by CustomWeather, © 2014

Note: Actual official high and low records may vary slightly from our data, if they occured in-between our weather recording intervals... More about our weather records

Advertising

Saguenay weather history for previous 24 hours

 ConditionsComfort  
Time TempWeatherWind HumidityBarometerVisibility
11:00 AM
Jan 26
-6 °FFrigid.3 mph59%30.32 "HgN/A
10:00 AM-9 °FFrigid.6 mph65%30.30 "HgN/A
9:00 AM-12 °FExtremely cold.8 mph70%30.27 "HgN/A
8:00 AM-13 °FExtremely cold.7 mph74%30.23 "HgN/A
7:00 AM-12 °FExtremely cold.8 mph77%30.21 "HgN/A
6:00 AM-11 °FExtremely cold.7 mph76%30.17 "HgN/A
5:00 AM-10 °FFrigid.9 mph81%30.14 "HgN/A
4:00 AM-9 °FFrigid.9 mph72%30.14 "HgN/A
3:00 AM-7 °FFrigid.14 mph72%30.12 "HgN/A
2:00 AM-6 °FFrigid.15 mph70%30.11 "HgN/A
1:00 AM-5 °FFrigid.13 mph71%30.08 "HgN/A
12:00 AM-4 °FFrigid.14 mph71%30.06 "HgN/A
11:00 PM
Jan 25
-3 °FFrigid.14 mphN/A30.03 "HgN/A
10:00 PM-2 °FFrigid.16 mph70%30.00 "HgN/A
9:00 PM-1 °FFrigid.20 mph72%29.96 "HgN/A
8:00 PM0 °FFrigid.20 mph72%29.93 "HgN/A
7:00 PM1 °FFrigid.24 mph70%29.88 "HgN/A
6:00 PM4 °FFrigid.21 mph64%29.84 "HgN/A
5:00 PM3 °FFrigid.22 mph69%29.79 "HgN/A
4:00 PM3 °FFrigid.24 mph74%29.74 "HgN/A
3:00 PM4 °FFrigid.22 mph78%29.69 "HgN/A
2:00 PM3 °FFrigid.24 mph79%29.64 "HgN/A
1:00 PM1 °FFrigid.26 mph80%29.60 "HgN/A
12:00 PM0 °FFrigid.28 mph87%29.56 "HgN/A
Weather by CustomWeather, © 2014

See weather overviewHow to use our weather pages